GALILEO-PFM 1 37846U 11060A 21015.29588509 -.00000077 00000-0 00000+0 0 9995 2 37846 56.7559 35.4694 0003624 314.1284 45.8850 1.70475297 57516 GALILEO-FM2 1 37847U 11060B 21016.67997439 -.00000077 00000-0 00000-0 0 9996 2 37847 56.7574 35.4308 0005514 301.8106 233.8249 1.70475483 57419 GALILEO-FM3 1 38857U 12055A 21016.51061991 .00000021 00000-0 00000-0 0 9999 2 38857 55.0166 155.9174 0001909 239.1170 120.8106 1.70473690 51449 GALILEO-FM4 1 38858U 12055B 21017.61822028 .00000025 00000-0 00000-0 0 9992 2 38858 55.0174 155.8866 0000727 217.1525 142.7948 1.70473631 51467 GALILEO 5 (261) 1 40128U 14050A 21017.38509981 -.00000114 00000-0 00000-0 0 9996 2 40128 50.5264 352.8426 1652296 106.3540 272.4189 1.85519350 41644 GALILEO 6 (262) 1 40129U 14050B 21017.10903930 -.00000114 00000-0 00000-0 0 9999 2 40129 50.5601 351.8977 1649808 107.1569 271.5404 1.85519969 43801 GALILEO 7 (263) 1 40544U 15017A 21017.42338539 -.00000077 00000-0 00000+0 0 9993 2 40544 56.5510 35.5151 0005508 261.6343 98.3416 1.70475017 36163 GALILEO 8 (264) 1 40545U 15017B 21017.20432343 -.00000077 00000-0 00000-0 0 9999 2 40545 56.5572 35.5379 0003379 243.1064 116.8978 1.70475214 36161 GALILEO 9 (205) 1 40889U 15045A 21015.10004640 -.00000012 00000-0 00000-0 0 9992 2 40889 55.9883 276.2712 0005766 10.5325 349.5549 1.70474630 33272 GALILEO 10 (206) 1 40890U 15045B 21012.97322195 -.00000005 00000-0 00000-0 0 9996 2 40890 55.9897 276.3264 0004055 0.4010 359.6712 1.70474588 33266 GALILEO 12 (269) 1 41174U 15079A 21015.49305817 .00000015 00000-0 00000-0 0 9991 2 41174 55.0315 155.6450 0002687 328.4933 31.4316 1.70473596 31216 GALILEO 11 (268) 1 41175U 15079B 21015.71277591 .00000016 00000-0 00000-0 0 9995 2 41175 55.0294 155.6380 0001953 336.6378 23.2955 1.70473615 31630 GALILEO 14 (26B) 1 41549U 16030A 21014.66109131 -.00000010 00000-0 00000-0 0 9990 2 41549 56.1313 276.1582 0004669 337.1936 22.8613 1.70474397 28927 GALILEO 13 (26A) 1 41550U 16030B 21016.12712850 -.00000015 00000-0 00000-0 0 9998 2 41550 56.1297 276.1196 0003319 316.2766 43.7715 1.70474496 28948 GALILEO 15 (267) 1 41859U 16069A 21016.37238920 .00000019 00000-0 00000+0 0 9992 2 41859 54.6884 155.9302 0002344 304.6810 55.2423 1.70473552 25916 GALILEO 16 (26C) 1 41860U 16069B 21015.63924494 .00000016 00000-0 00000-0 0 9998 2 41860 54.6875 155.9492 0001952 356.7270 3.2133 1.70473564 25925 GALILEO 17 (26D) 1 41861U 16069C 21016.59153523 .00000020 00000-0 00000-0 0 9997 2 41861 54.6856 155.9271 0001655 255.7945 104.1337 1.70473635 25945 GALILEO 18 (26E) 1 41862U 16069D 21014.97883978 .00000013 00000-0 00000+0 0 9993 2 41862 54.6880 155.9670 0000942 263.6535 96.2745 1.70473655 25909